Location: Mason
(37.5237°N, 89.2543°W)
Time: 08:17:53
(UTC+00:00)

Hubble Space Telescope - Pass Details

Date: 24 January 2021
Orbit: 535 x 539 km, 28.5° (Epoch: 08 March)

Event Time Altitude Azimuth Distance (km) Brightness Sun altitude
Rises 23:38:13 0° 251° (WSW) 2,672 7.4 -5.5°
Reaches altitude 10° 23:40:49 10° 236° (SW) 1,782 5.0 -6.0°
Maximum altitude 23:44:04 23° 184° (S) 1,179 2.8 -6.6°
Drops below altitude 10° 23:47:20 10° 131° (SE) 1,783 3.1 -7.2°
Enters shadow 23:49:45 - 117° (ESE) 2,605 3.8 -7.7°
